User: anonymous   Login
Location: Unspecified
(0.0000°N, 0.0000°E)
Time: 18:22:39
(UTC+01:00)
Language:

Cosmos 1538 Rocket - Orbit

View from above orbital plane
View from above orbital plane
View from above satellite
View from above satellite

Ground track
Ground track

The orbit data is extracted from the following two-line orbital elements,

1 14760U 84019B   16038.22142574  .00000091  00000-0  40454-4 0  9996
2 14760  74.0453 311.6226 0028996 292.0979 177.0269 14.35752815672408
Epoch (UTC): 07 February 2016 05:18:51
Eccentricity: 0.0028996
inclination: 74.0453°
perigee height: 752 km
apogee height: 793 km
right ascension of ascending node: 311.6226°
argument of perigee: 292.0979°
revolutions per day: 14.35752815
mean anomaly at epoch: 177.0269°
orbit number at epoch: 67240

The dashed part of the orbit path shows where the satellite is in the earth's shadow,  

DLR